Location: Clarion
(42.7316°N, 93.7330°W)
Time: 08:55:33
(UTC+00:00)

CZ-4 R/B - Pass Details

Date: 22 April 2026
Orbit: 490 x 536 km, 97.5° (Epoch: 17 May)

Event Time Altitude Azimuth Distance (km) Brightness Sun altitude
Exits shadow 01:54:27 - 155° (SSE) 1,983 3.7 -9.4°
Reaches altitude 10° 01:55:03 10° 153° (SSE) 1,733 3.4 -9.5°
Maximum altitude 01:58:42 57° 75° (ENE) 604 1.3 -10.1°
Drops below altitude 10° 02:02:21 10° 356° (N) 1,721 4.3 -10.7°
Sets 02:04:27 0° 352° (N) 2,603 5.3 -11.0°
